Location: Aalen
(48.8330°N, 10.1000°E)
Time: 01:13:56
(UTC+02:00)

Transit 4A - Pass Details

Date: 06 August 2021
Orbit: 870 x 974 km, 66.8° (Epoch: 26 September)

Event Time Altitude Azimuth Distance (km) Brightness Sun altitude
Rises 01:16:50 0° 234° (SW) 3,479 - -24.4°
Reaches altitude 10° 01:19:25 10° 240° (WSW) 2,533 - -24.5°
Exits shadow 01:21:32 22° 250° (WSW) 1,816 9.2 -24.5°
Maximum altitude 01:25:03 48° 314° (NW) 1,132 8.6 -24.5°
Drops below altitude 10° 01:30:41 10° 29° (NNE) 2,528 11.0 -24.5°
Sets 01:33:16 0° 35° (NE) 3,472 11.8 -24.4°
